Wind_Speed
11 11 11 10 9 7 7 6 6 7 6 6 6 6 6 5 5 5 5 6 6 6 6 7 7 7 7 7 7 8 9 9 8 8 8 9 9 9 10 10 10 10 10
10 10 11 10 9 8 7 7 7 7 7 6 6 6 6 5 6 6 7 7 7 7 7 8 8 9 9 9 9 9 10 9 9 9 9 10 10 11 11 12 12 12 11
10 11 11 11 11 10 8 7 7 7 7 7 7 6 7 7 7 8 8 8 8 9 10 11 10 10 10 11 11 11 11 11 11 11 11 11 11 12 12 13 13 13 13
11 11 11 11 11 11 9 8 8 7 8 8 8 8 9 9 9 10 10 9 10 10 11 12 12 12 12 11 12 12 12 12 13 12 12 12 12 13 13 14 14 14 14
11 11 11 11 11 11 11 10 9 9 9 9 9 9 9 10 10 10 11 11 11 12 13 14 13 13 12 12 13 13 13 14 14 14 14 13 14 14 14 14 15 16 16
11 11 11 11 12 12 11 11 11 10 10 11 10 10 10 11 11 11 12 12 13 14 15 15 15 14 15 14 14 15 15 16 16 15 15 15 15 16 15 15 16 16 16
12 12 12 12 12 12 12 12 12 12 11 12 12 12 12 13 13 13 14 14 15 15 16 16 16 15 16 16 16 17 17 17 17 17 17 17 17 17 16 16 16 17 17
13 13 13 12 12 12 12 12 12 12 12 12 13 14 14 14 15 15 15 16 17 17 17 17 17 18 18 18 18 18 19 19 19 19 19 19 18 18 18 17 17 18 19
13 14 14 14 13 13 13 13 13 13 13 14 14 15 15 15 16 17 17 18 19 19 18 18 19 20 21 20 19 20 20 20 19 19 20 20 20 20 19 18 19 19 20
13 15 15 15 14 14 14 15 15 15 16 16 16 16 16 17 18 18 19 19 20 20 20 20 21 21 22 22 22 21 22 22 21 21 21 21 21 20 20 20 21 21 21
15 15 15 15 14 15 16 16 17 17 18 18 18 18 19 19 19 20 21 20 21 22 23 23 23 23 23 22 22 22 22 22 22 22 22 22 21 21 21 22 23 23 22
17 17 17 16 16 16 17 18 18 18 19 19 20 20 20 21 21 22 22 22 23 23 24 24 24 23 23 23 23 23 22 22 23 23 22 22 23 22 23 24 24 23 23
19 20 19 18 18 18 19 19 20 20 21 20 20 21 21 22 23 23 24 24 24 25 25 25 25 24 23 23 23 23 23 23 23 23 23 24 25 25 25 25 25 25 24
21 21 20 21 21 21 21 21 22 22 22 22 22 22 23 24 25 25 25 26 26 26 25 25 25 24 24 24 25 26 25 25 25 25 25 26 26 27 27 26 26 26 25
22 22 22 23 23 22 23 23 23 23 24 24 25 25 25 25 26 26 26 27 26 25 25 25 25 25 25 25 25 26 27 27 27 27 27 28 28 28 28 28 27 26 26
23 24 23 24 24 24 24 24 25 25 26 27 27 27 27 27 27 26 26 26 26 26 26 26 26 26 26 27 27 27 28 28 28 29 29 29 29 29 29 29 28 27 27
24 25 26 26 26 26 26 27 28 27 27 28 28 28 28 28 28 27 26 26 26 27 26 27 26 27 27 28 28 28 28 28 28 29 30 30 30 29 29 29 29 28 28
26 26 27 28 27 27 28 29 29 28 28 28 29 29 29 29 28 27 27 28 28 27 27 27 26 27 28 28 29 29 28 29 30 29 29 29 30 29 29 29 29 29 28
27 27 28 28 28 28 29 29 28 28 28 28 29 29 29 28 28 27 28 28 28 27 27 27 27 28 28 29 29 30 30 30 29 29 29 29 29 29 29 29 29 29 29
30 29 29 29 29 28 28 28 28 28 29 29 29 29 29 28 28 27 27 28 28 28 28 27 28 29 29 29 29 29 30 30 29 30 29 29 29 29 29 29 29 29 29
30 30 29 29 30 29 28 28 28 29 29 29 29 29 29 28 27 27 28 28 29 28 28 29 29 28 28 29 29 29 29 29 29 29 29 29 28 29 29 29 29 29 29
30 29 29 29 29 28 27 28 28 29 29 29 29 29 28 28 28 28 28 28 29 29 29 29 29 29 29 29 30 30 30 29 30 29 28 28 28 28 28 28 28 28 29
29 29 29 28 28 28 28 29 29 29 30 30 30 29 28 28 28 28 28 28 28 29 30 30 29 30 30 30 31 31 30 30 30 29 28 28 28 28 28 28 28 28 28
28 28 28 28 27 28 28 29 30 30 31 31 30 29 28 28 28 29 29 30 30 30 29 29 29 29 29 29 30 30 29 29 29 29 28 28 28 29 28 28 28 28 29
27 27 27 27 28 28 29 29 30 31 31 30 29 29 29 29 29 29 30 30 30 30 29 29 29 29 29 30 30 30 29 29 29 29 29 29 29 29 29 29 29 29 29
28 28 28 28 29 29 30 31 31 31 30 29 29 29 29 30 30 29 30 30 30 30 30 30 30 30 30 30 30 30 30 30 29 29 29 29 29 29 29 29 29 29 29
Wind_Direction
16 19 15 10 8 9 11 10 6 1 357 354 350 347 346 337 328 321 317 316 317 315 318 320 319 320 320 318 317 317 316 316 315 313 313 312 312 309 306 306 304 298 298
11 17 13 8 3 360 356 350 349 347 342 340 337 334 337 334 329 321 316 311 311 307 307 309 311 312 314 312 311 311 311 310 309 306 303 303 304 305 306 303 302 299 295
4 5 3 3 359 351 341 336 334 335 334 330 325 323 327 326 320 314 308 307 310 307 302 304 302 304 305 306 307 306 304 304 304 302 298 297 297 297 300 299 298 298 294
354 352 350 351 350 346 334 329 327 329 327 324 322 319 320 317 314 312 306 304 306 305 303 303 299 298 299 301 302 302 301 302 303 303 301 300 300 296 297 296 295 296 294
345 342 341 344 344 344 341 332 328 325 322 319 316 313 311 310 311 313 307 301 301 301 302 299 299 298 298 298 299 299 296 296 299 299 298 298 299 297 296 293 292 293 291
336 337 338 339 340 340 339 337 333 327 320 316 314 310 308 306 308 309 308 303 300 299 298 298 300 297 292 293 297 297 295 293 296 298 296 299 299 297 294 290 290 291 291
323 325 330 333 333 332 331 330 329 329 323 317 313 310 307 306 305 308 307 303 302 303 301 298 295 296 294 292 294 295 296 292 293 295 295 296 295 294 292 290 288 288 289
317 320 325 328 328 326 326 325 323 324 321 316 311 309 308 306 305 305 306 303 304 305 304 300 296 296 295 294 294 295 294 293 293 292 293 295 293 290 289 289 289 289 289
312 315 321 321 319 319 319 318 317 318 317 314 312 312 310 307 305 303 303 303 304 302 302 298 296 295 293 292 291 292 291 293 293 293 294 295 293 290 288 289 290 290 289
307 310 314 314 311 312 312 313 313 312 311 309 308 307 307 304 303 302 301 301 300 300 299 298 298 297 295 292 291 291 290 288 290 291 291 291 293 293 290 290 291 291 290
304 309 311 312 310 309 308 308 309 309 310 308 306 304 303 302 301 302 302 301 301 299 299 297 295 294 293 292 294 295 290 289 289 289 290 291 293 294 294 293 293 291 290
308 308 311 309 308 307 304 304 304 305 306 304 302 302 303 304 303 302 300 300 300 300 300 299 294 291 291 292 291 292 291 290 290 291 291 292 293 294 293 294 294 293 290
306 310 307 305 307 306 303 303 303 303 304 303 302 301 301 301 301 300 299 298 297 297 297 296 295 292 289 290 290 291 292 293 294 293 292 292 291 290 292 292 291 291 290
302 304 304 305 304 304 304 303 303 303 303 303 303 302 300 300 300 299 298 298 297 296 296 295 296 295 291 292 292 292 293 293 292 291 291 291 291 291 291 291 291 291 288
297 295 297 301 302 302 303 302 303 304 304 303 303 302 301 300 299 298 298 298 298 298 296 296 297 297 296 294 292 291 291 291 290 290 290 289 289 290 290 290 290 289 288
295 294 294 300 303 302 300 301 303 302 302 302 301 300 299 298 298 297 298 298 298 298 296 298 299 297 297 295 294 294 291 290 290 289 288 288 288 288 288 288 288 287 286
292 294 296 298 299 298 298 300 301 301 301 301 301 299 298 298 297 296 297 298 297 296 295 296 297 297 297 297 295 293 294 292 292 291 289 288 287 287 288 287 286 285 284
293 295 294 294 295 296 295 297 298 298 300 301 301 299 298 296 296 297 298 299 297 295 295 295 295 297 296 295 294 294 295 294 293 293 293 291 289 288 286 285 285 284 283
294 295 295 295 294 294 294 294 295 297 298 298 298 298 298 298 298 298 297 299 296 294 294 295 297 298 297 296 296 295 295 296 295 295 295 295 293 290 288 286 285 283 282
291 293 293 294 293 294 295 296 296 297 298 298 297 297 298 299 299 298 298 297 297 296 295 294 297 298 296 297 297 296 296 295 295 295 295 295 293 291 289 288 286 284 282
288 290 291 291 292 292 295 296 296 297 298 297 296 296 297 297 296 297 297 298 298 296 295 295 296 296 295 297 297 297 297 296 296 295 295 295 294 292 291 289 287 285 284
288 289 290 290 291 293 295 296 295 296 298 298 298 296 296 296 295 296 298 299 299 298 297 296 296 297 296 296 297 297 296 296 295 294 294 293 293 293 292 291 289 287 286
288 289 290 290 291 292 293 295 296 298 298 299 298 296 295 294 295 296 297 299 299 298 298 298 298 299 297 297 297 297 296 295 296 295 294 294 293 293 293 292 291 289 288
290 290 290 291 291 292 293 294 295 297 298 298 297 295 295 294 295 296 296 297 299 299 298 297 298 299 299 298 298 298 297 296 297 296 294 293 294 293 292 291 291 291 290
292 292 292 293 293 292 292 293 294 295 296 296 296 295 294 294 294 295 297 298 298 298 297 296 297 298 298 297 296 296 296 295 294 294 294 294 294 294 293 292 292 292 291
291 291 291 291 291 292 293 294 295 295 294 294 294 294 294 294 294 294 296 297 296 296 298 298 297 297 297 296 296 296 295 295 294 294 294 294 295 295 293 292 292 291 290
Height
5919 5917 5916 5915 5914 5913 5911 5910 5909 5907 5906 5905 5904 5903 5901 5900 5900 5899 5898 5897 5895 5894 5893 5893 5891 5890 5889 5887 5886 5885 5884 5882 5881 5879 5878 5877 5875 5874 5872 5871 5870 5869 5867
5919 5917 5916 5915 5914 5912 5911 5909 5908 5906 5905 5904 5903 5902 5900 5899 5898 5897 5896 5895 5893 5893 5892 5891 5889 5888 5887 5885 5884 5883 5881 5880 5878 5877 5875 5874 5873 5871 5870 5868 5867 5866 5864
5918 5917 5916 5914 5913 5911 5910 5908 5907 5906 5904 5903 5901 5900 5899 5898 5897 5896 5894 5893 5891 5890 5889 5888 5887 5885 5884 5883 5881 5880 5879 5877 5876 5874 5873 5871 5870 5868 5867 5865 5864 5862 5860
5918 5916 5915 5914 5912 5909 5908 5907 5905 5904 5903 5901 5900 5899 5897 5896 5895 5894 5892 5891 5889 5888 5887 5885 5884 5883 5881 5880 5878 5877 5875 5874 5872 5870 5869 5868 5866 5865 5864 5862 5860 5858 5857
5916 5915 5914 5912 5911 5909 5907 5905 5904 5902 5901 5900 5898 5897 5895 5894 5892 5891 5890 5888 5887 5885 5884 5882 5880 5879 5878 5876 5875 5873 5872 5870 5868 5867 5865 5863 5862 5861 5860 5858 5856 5855 5853
5915 5914 5912 5911 5909 5907 5906 5904 5903 5901 5899 5898 5896 5894 5893 5891 5890 5888 5887 5886 5884 5882 5880 5878 5876 5875 5874 5872 5870 5869 5868 5866 5864 5862 5860 5859 5858 5856 5854 5853 5852 5850 5848
5913 5912 5910 5909 5907 5905 5904 5902 5900 5899 5897 5895 5894 5892 5890 5888 5887 5885 5884 5882 5880 5878 5876 5874 5872 5871 5870 5868 5867 5865 5863 5861 5859 5858 5856 5855 5853 5851 5849 5848 5846 5845 5843
5910 5909 5908 5906 5905 5903 5902 5900 5898 5897 5895 5893 5891 5889 5887 5886 5884 5882 5880 5878 5876 5874 5872 5871 5869 5867 5865 5864 5862 5860 5858 5856 5854 5853 5851 5849 5847 5846 5844 5843 5841 5840 5838
5907 5906 5905 5903 5902 5901 5899 5897 5896 5894 5892 5890 5888 5886 5884 5882 5880 5878 5876 5874 5872 5870 5868 5866 5864 5863 5860 5858 5857 5855 5853 5851 5849 5847 5845 5844 5842 5840 5838 5837 5836 5834 5832
5904 5903 5902 5900 5899 5897 5895 5894 5892 5890 5888 5887 5884 5883 5881 5879 5877 5874 5872 5870 5868 5866 5863 5861 5859 5857 5855 5853 5851 5849 5847 5845 5843 5841 5840 5838 5836 5834 5832 5830 5829 5827 5826
5900 5899 5898 5897 5895 5893 5891 5890 5888 5886 5884 5882 5880 5878 5876 5874 5872 5870 5867 5865 5863 5860 5858 5856 5854 5851 5849 5847 5845 5842 5840 5838 5837 5835 5833 5832 5830 5828 5826 5824 5822 5820 5819
5895 5895 5894 5893 5891 5889 5888 5886 5884 5882 5880 5878 5876 5874 5871 5869 5867 5864 5862 5860 5857 5854 5852 5849 5847 5845 5843 5840 5838 5836 5834 5832 5830 5828 5827 5825 5824 5822 5820 5817 5815 5813 5811
5893 5891 5889 5888 5886 5885 5884 5882 5880 5878 5876 5873 5871 5869 5866 5864 5861 5859 5856 5853 5851 5848 5845 5843 5840 5838 5836 5834 5831 5829 5827 5825 5823 5822 5820 5819 5817 5815 5813 5810 5808 5806 5804
5888 5886 5885 5884 5882 5880 5878 5876 5874 5872 5870 5868 5866 5863 5860 5858 5855 5852 5850 5846 5844 5841 5838 5835 5833 5831 5829 5827 5825 5823 5820 5818 5816 5814 5813 5811 5809 5807 5805 5803 5801 5799 5797
5884 5882 5880 5878 5876 5874 5873 5871 5869 5867 5864 5862 5859 5857 5854 5851 5848 5845 5843 5840 5837 5834 5831 5829 5827 5824 5822 5820 5818 5815 5813 5811 5809 5807 5805 5803 5801 5799 5797 5795 5793 5791 5789
5879 5877 5875 5873 5871 5869 5867 5865 5863 5861 5858 5855 5853 5850 5847 5844 5841 5839 5836 5833 5830 5827 5825 5822 5820 5818 5815 5813 5810 5808 5806 5804 5801 5799 5797 5795 5793 5791 5789 5786 5785 5783 5781
5874 5872 5870 5867 5865 5863 5861 5859 5857 5855 5852 5849 5845 5842 5840 5837 5834 5831 5829 5826 5823 5820 5817 5815 5813 5810 5808 5805 5803 5800 5798 5795 5793 5791 5788 5786 5784 5782 5780 5778 5776 5774 5773
5867 5865 5863 5861 5859 5857 5855 5852 5850 5847 5845 5842 5838 5835 5832 5830 5827 5824 5821 5819 5816 5813 5810 5808 5805 5803 5800 5797 5795 5792 5790 5787 5785 5782 5780 5777 5775 5773 5771 5769 5767 5765 5764
5860 5858 5856 5854 5851 5849 5847 5845 5843 5840 5837 5834 5831 5828 5825 5822 5820 5817 5814 5811 5808 5806 5803 5800 5798 5795 5792 5790 5787 5784 5782 5779 5776 5774 5771 5769 5766 5764 5762 5760 5758 5756 5755
5853 5851 5849 5846 5844 5842 5840 5838 5835 5833 5830 5827 5824 5821 5818 5815 5812 5810 5807 5804 5801 5798 5795 5792 5790 5787 5784 5782 5779 5776 5774 5771 5768 5766 5763 5760 5758 5755 5753 5751 5749 5747 5745
5845 5843 5841 5838 5836 5835 5833 5830 5828 5825 5822 5819 5816 5813 5810 5807 5805 5802 5800 5797 5794 5791 5788 5785 5782 5778 5776 5773 5771 5768 5766 5763 5760 5757 5755 5752 5749 5747 5744 5742 5740 5738 5736
5837 5835 5833 5830 5827 5825 5824 5822 5820 5817 5814 5811 5808 5805 5803 5800 5797 5795 5792 5789 5786 5783 5780 5777 5774 5771 5768 5765 5762 5760 5757 5754 5752 5749 5746 5743 5741 5738 5736 5733 5731 5729 5727
5828 5826 5824 5822 5821 5819 5817 5815 5812 5809 5806 5803 5800 5798 5795 5792 5790 5787 5784 5781 5778 5775 5772 5769 5766 5763 5760 5757 5754 5751 5748 5746 5743 5741 5738 5735 5733 5730 5727 5725 5722 5720 5718
5820 5818 5816 5815 5813 5811 5809 5807 5805 5802 5798 5796 5793 5790 5787 5785 5782 5779 5776 5773 5770 5767 5764 5761 5758 5754 5751 5748 5745 5742 5739 5737 5734 5732 5730 5727 5724 5721 5719 5716 5714 5711 5709
5813 5811 5809 5807 5806 5804 5802 5799 5796 5793 5791 5788 5785 5782 5779 5777 5774 5771 5768 5765 5762 5759 5756 5753 5749 5746 5743 5740 5737 5734 5731 5729 5726 5724 5721 5718 5716 5713 5710 5708 5705 5702 5700
5805 5803 5801 5800 5798 5796 5793 5791 5788 5785 5782 5779 5777 5774 5771 5769 5766 5763 5760 5757 5754 5751 5747 5744 5741 5738 5735 5732 5729 5726 5723 5720 5718 5715 5713 5710 5707 5704 5701 5699 5696 5694 5691